Simultaneous Nadir Overpasses (SNOs) Predictions

Prediction of SNOs between LANDSAT-8 and METOP-A Satellite Orbit:

Table of predicted SNOs for the next 14.0 days since TLE Epoch: 3/30/2017
Index Date (LANDSAT-8) Time (LANDSAT-8) Lat,Lon (LANDSAT-8) SZA (LANDSAT-8 ) Date (METOP-A) Time (METOP-A) Lat,Lon (METOP-A) SZA (METOP-A ) Distance(km) Time Diff (sec)
1 03/31/2017 02:22:00 81.13,-176.02 78.86 03/31/2017 02:21:03 81.14,-175.87 78.86 2.83 57
2 03/31/2017 03:11:26 -81.15, -8.11 101.12 03/31/2017 03:11:43 -81.15, -8.11 101.11 0.44 17
3 04/02/2017 21:56:13 81.13,-109.58 77.80 04/02/2017 21:55:24 81.14,-109.43 77.80 2.74 49
4 04/02/2017 22:45:39 -81.15, 58.36 102.17 04/02/2017 22:46:04 -81.15, 58.36 102.16 0.45 25
5 04/05/2017 17:30:26 81.15, -42.83 76.80 04/05/2017 17:29:45 81.15, -42.64 76.80 3.22 41
6 04/05/2017 18:19:52 -81.17, 125.14 103.17 04/05/2017 18:20:25 -81.17, 125.19 103.15 0.94 33
7 04/08/2017 13:04:40 81.14, 23.50 75.75 04/08/2017 13:04:08 81.14, 23.37 75.72 2.41 32
8 04/08/2017 13:54:06 -81.17,-168.50 104.21 04/08/2017 13:54:47 -81.17,-168.39 104.19 1.87 41
9 04/11/2017 08:38:53 81.13, 89.79 74.71 04/11/2017 08:38:29 81.14, 89.74 74.70 0.88 24




NCC Satellite Simultaneous Nadir Overpasses (SNOs) Prediction Service
